Murray, KY

9:39 PM CDT on April 30, 2017 (GMT -0500)
Kyle-Oakley

Weather History for KCEY - February, 2012

Change the Weather History Date:

Thursday, February 23, 2012

  Actual Average (KPAH) Record (KPAH)
Temperature  
Mean Temperature 60 °F -  
Max Temperature 73 °F 51 °F 75 °F (1982)
Min Temperature 48 °F 33 °F 13 °F (1968)
Degree Days  
Heating Degree Days 4    
Growing Degree Days 10 (Base 50)    
Moisture  
Dew Point 51 °F    
Average Humidity 74    
Maximum Humidity 100    
Minimum Humidity 44    
Precipitation  
Precipitation 0.00 in - - ()
Sea Level Pressure  
Sea Level Pressure 29.43 in    
Wind  
Wind Speed 10 mph (South)    
Max Wind Speed 25 mph    
Max Gust Speed 34 mph    
Visibility 9 miles    
Events      
Averages and records for this station are not official NWS values.
T = Trace of Precipitation, MM = Missing Value Source: NWS Daily Summary

Daily Weather History Graph

Daily Weather History Graph

Search for Another Location

Airport or City:

Trip Planner

Search our weather history database for the weather conditions in past years. The results will help you decide how hot, cold, wet, or windy it might be!

Date:

Astronomy

Feb. 23, 2012 Rise Set
Actual Time 6:32 AM CST 5:41 PM CST
Civil Twilight 6:06 AM CST 6:07 PM CST
Nautical Twilight 5:36 AM CST 6:37 PM CST
Astronomical Twilight 5:06 AM CST 7:07 PM CST
Moon 7:03 AM CST (2/23) 7:41 PM CST (2/23)
Length of Visible Light 12h 01m
Length of Day
11h 09m
Waxing Crescent, 3% of the Moon is Illuminated
Feb 23
Waxing Crescent
Feb 29
First Quarter
Mar 8
Full
Mar 14
Last Quarter
Mar 22
New

Hourly Weather History & Observations

Time (CST) Temp. Dew Point Humidity Pressure Visibility Wind Dir Wind Speed Gust Speed Precip Events Conditions
12:15 AM 55.4 °F 50.0 °F 82% 29.53 in 10.0 mi WSW 11.5 mph - N/A   Clear
12:35 AM 55.4 °F 50.0 °F 82% 29.54 in 10.0 mi WSW 10.4 mph - N/A   Clear
12:55 AM 53.6 °F 50.0 °F 88% 29.54 in 10.0 mi SW 10.4 mph - N/A   Clear
1:15 AM 53.6 °F 50.0 °F 88% 29.55 in 10.0 mi SW 8.1 mph - N/A   Clear
1:35 AM 53.6 °F 50.0 °F 88% 29.55 in 10.0 mi WSW 6.9 mph - N/A   Clear
1:55 AM 51.8 °F 48.2 °F 88% 29.54 in 10.0 mi West 5.8 mph - N/A   Clear
2:15 AM 50.0 °F 48.2 °F 94% 29.54 in 9.0 mi WSW 6.9 mph - N/A   Clear
2:35 AM 51.8 °F 50.0 °F 94% 29.54 in 9.0 mi SW 6.9 mph - N/A   Clear
2:55 AM 51.8 °F 50.0 °F 94% 29.53 in 8.0 mi SW 4.6 mph - N/A   Clear
3:15 AM 50.0 °F 50.0 °F 100% 29.52 in 6.0 mi Calm Calm - N/A   Clear
3:35 AM 50.0 °F 48.2 °F 94% 29.51 in 5.0 mi Calm Calm - N/A   Clear
3:55 AM 48.2 °F 48.2 °F 100% 29.50 in 2.0 mi East 5.8 mph - N/A   Clear
4:15 AM 48.2 °F 46.4 °F 93% 29.49 in 3.0 mi East 4.6 mph - N/A   Clear
4:35 AM 48.2 °F 46.4 °F 93% 29.53 in 4.0 mi South 6.9 mph - N/A   Clear
4:55 AM 50.0 °F 50.0 °F 100% 29.52 in 7.0 mi SE 4.6 mph - N/A   Clear
5:15 AM 50.0 °F 48.2 °F 94% 29.53 in 6.0 mi SSE 5.8 mph - N/A   Clear
5:55 AM 48.2 °F 48.2 °F 100% 29.52 in 5.0 mi ESE 4.6 mph - N/A   Clear
6:15 AM 48.2 °F 48.2 °F 100% 29.52 in 3.0 mi ESE 5.8 mph - N/A   Clear
6:35 AM 48.2 °F 48.2 °F 100% 29.52 in 1.2 mi SE 5.8 mph - N/A   Clear
6:55 AM 48.2 °F 48.2 °F 100% 29.51 in 1.5 mi SE 5.8 mph - N/A   Clear
7:15 AM 48.2 °F 48.2 °F 100% 29.51 in 2.0 mi SE 5.8 mph - N/A   Clear
7:35 AM 50.0 °F 50.0 °F 100% 29.50 in 5.0 mi ESE 8.1 mph - N/A   Clear
7:55 AM 50.0 °F 50.0 °F 100% 29.51 in 9.0 mi SE 6.9 mph - N/A   Clear
8:15 AM 53.6 °F 50.0 °F 88% 29.50 in 10.0 mi ESE 6.9 mph - N/A   Clear
8:35 AM 55.4 °F 50.0 °F 82% 29.49 in 10.0 mi ESE 8.1 mph - N/A   Clear
8:55 AM 57.2 °F 50.0 °F 77% 29.48 in 10.0 mi SE 8.1 mph - N/A   Clear
9:15 AM 59.0 °F 50.0 °F 72% 29.45 in 10.0 mi SE 8.1 mph - N/A   Clear
9:35 AM 59.0 °F 50.0 °F 72% 29.44 in 10.0 mi SE 9.2 mph - N/A   Clear
9:55 AM 62.6 °F 50.0 °F 63% 29.43 in 10.0 mi ESE 9.2 mph - N/A   Clear
10:15 AM 64.4 °F 48.2 °F 56% 29.41 in 10.0 mi SE 12.7 mph 18.4 mph N/A   Clear
10:35 AM 66.2 °F 48.2 °F 52% 29.39 in 10.0 mi SE 11.5 mph 19.6 mph N/A   Clear
10:55 AM 68.0 °F 50.0 °F 52% 29.39 in 10.0 mi SSE 20.7 mph 26.5 mph N/A   Clear
11:15 AM 66.2 °F 53.6 °F 64% 29.39 in 10.0 mi South 17.3 mph 34.5 mph N/A   Mostly Cloudy
11:35 AM 66.2 °F 55.4 °F 68% 29.38 in 10.0 mi SSE 23.0 mph 34.5 mph N/A   Overcast
11:55 AM 64.4 °F 55.4 °F 73% 29.37 in 10.0 mi SSE 17.3 mph 28.8 mph N/A   Overcast
12:15 PM 64.4 °F 55.4 °F 73% 29.36 in 10.0 mi South 17.3 mph 31.1 mph N/A   Overcast
12:55 PM 68.0 °F 55.4 °F 64% 29.31 in 10.0 mi South 18.4 mph 28.8 mph N/A   Mostly Cloudy
1:15 PM 68.0 °F 55.4 °F 64% 29.31 in 10.0 mi South 15.0 mph 26.5 mph N/A   Mostly Cloudy
1:35 PM 68.0 °F 55.4 °F 64% 29.32 in 10.0 mi SSW 18.4 mph 25.3 mph N/A   Mostly Cloudy
1:55 PM 71.6 °F 55.4 °F 57% 29.30 in 10.0 mi South 17.3 mph 25.3 mph N/A   Mostly Cloudy
2:15 PM 73.4 °F 57.2 °F 57% 29.29 in 10.0 mi SSW 13.8 mph 25.3 mph N/A   Scattered Clouds
2:35 PM 73.4 °F 55.4 °F 53% 29.30 in 10.0 mi SW 16.1 mph 23.0 mph N/A   Mostly Cloudy
2:55 PM 73.4 °F 53.6 °F 50% 29.30 in 10.0 mi SSW 18.4 mph 31.1 mph N/A   Overcast
3:15 PM 73.4 °F 50.0 °F 44% 29.30 in 10.0 mi SW 21.9 mph 33.4 mph N/A   Mostly Cloudy
3:35 PM 73.4 °F 51.8 °F 47% 29.31 in 10.0 mi SW 23.0 mph 32.2 mph N/A   Mostly Cloudy
3:55 PM 73.4 °F 51.8 °F 47% 29.32 in 10.0 mi SW 15.0 mph 25.3 mph N/A   Mostly Cloudy
4:15 PM 73.4 °F 50.0 °F 44% 29.32 in 10.0 mi SW 25.3 mph 31.1 mph N/A   Mostly Cloudy
4:35 PM 73.4 °F 51.8 °F 47% 29.33 in 10.0 mi SW 16.1 mph 23.0 mph N/A   Scattered Clouds
4:55 PM 71.6 °F 53.6 °F 53% 29.34 in 10.0 mi SW 15.0 mph 21.9 mph N/A   Partly Cloudy
5:15 PM 71.6 °F 53.6 °F 53% 29.34 in 10.0 mi SSW 10.4 mph - N/A   Scattered Clouds
5:35 PM 71.6 °F 53.6 °F 53% 29.34 in 10.0 mi SSW 11.5 mph 20.7 mph N/A   Mostly Cloudy
5:55 PM 69.8 °F 53.6 °F 56% 29.35 in 10.0 mi SSW 11.5 mph - N/A   Mostly Cloudy
6:15 PM 68.0 °F 53.6 °F 60% 29.36 in 10.0 mi SW 10.4 mph - N/A   Mostly Cloudy
6:35 PM 68.0 °F 53.6 °F 60% 29.36 in 10.0 mi SW 6.9 mph - N/A   Scattered Clouds
6:55 PM 68.0 °F 53.6 °F 60% 29.36 in 10.0 mi SSW 10.4 mph 16.1 mph N/A   Scattered Clouds
7:15 PM 68.0 °F 53.6 °F 60% 29.37 in 10.0 mi SW 9.2 mph - N/A   Mostly Cloudy
7:35 PM 66.2 °F 53.6 °F 64% 29.38 in 10.0 mi SSW 6.9 mph - N/A   Partly Cloudy
7:55 PM 66.2 °F 53.6 °F 64% 29.38 in 10.0 mi SSW 8.1 mph - N/A   Clear
8:15 PM 66.2 °F 53.6 °F 64% 29.39 in 10.0 mi SW 10.4 mph - N/A   Clear
8:35 PM 66.2 °F 53.6 °F 64% 29.40 in 10.0 mi SW 9.2 mph - N/A   Clear
8:55 PM 64.4 °F 53.6 °F 68% 29.40 in 10.0 mi SSW 8.1 mph - N/A   Clear
9:15 PM 64.4 °F 53.6 °F 68% 29.40 in 10.0 mi SSW 9.2 mph - N/A   Clear
9:35 PM 64.4 °F 53.6 °F 68% 29.41 in 10.0 mi SSW 9.2 mph - N/A   Clear
9:55 PM 64.4 °F 53.6 °F 68% 29.42 in 10.0 mi SW 11.5 mph - N/A   Clear
10:15 PM 64.4 °F 50.0 °F 59% 29.43 in 10.0 mi WSW 12.7 mph 21.9 mph N/A   Clear
10:35 PM 62.6 °F 48.2 °F 59% 29.45 in 10.0 mi WSW 12.7 mph - N/A   Clear
10:55 PM 60.8 °F 46.4 °F 59% 29.45 in 10.0 mi West 11.5 mph - N/A   Clear
11:15 PM 59.0 °F 44.6 °F 59% 29.47 in 10.0 mi West 11.5 mph - N/A   Clear
11:35 PM 59.0 °F 44.6 °F 59% 29.48 in 10.0 mi West 12.7 mph - N/A   Clear
11:55 PM 59.0 °F 42.8 °F 55% 29.50 in 10.0 mi WNW 16.1 mph 20.7 mph N/A   Clear